Darstellungsparameter: Aktuell verwendete Einstellungen:
Skalierung der Graphiken ... ?
xyx+y,   Skalierungsfaktor:      Skalierung: Modus: x, Faktor: 1
Darstellungszeitraum ... ?
Vom - - bis: - -   Zeitraum: 26.06.2019 - 26.06.2019
Min/Max/Avg-Anzeige ... ?
Zeige MMA aktuell
Zeige MMA Monat
Zeige MMA alles
Zeige --A aktuell
Zeige --A Monat
Zeige --A alles
Keine MMA-Anzeige
MMA:
Keine MMA-Graphiken
MMA-Basis: 26.06.2019 - 26.06.2019
Quicknavigation für Darstellung... ?
Tage:      1T, 2T, 3T, 5T -1T -2T -3T -5T +1T +2T +3T +5T
Wochen: 1W, 2W, 3W -1W -2W -3W +1W +2W +3W
Monate: 1M, 3M, 6M -1M -3M -6M +1M +3M +6M
Jahre:    1J, 3J, 5J, 10J -1J -3J -5J -10J +1J +3J +5J +10J
Nutze für die Darstellung ... ?
Originaldaten oder Mittelwerte auf ...
Stundenbasis Tagesbasis Wochenbasis
Monatsbasis Jahresbasis      Datenbasis: Original-Daten
Darstellen als:
Statistik (Auto) Statistik J:M      Darstellung:
Zur Graphik,    zurück zur Übersicht aller Sensoren.
 
Tabellarische Datenbersicht: ?
 
Sensor: Nr:Datum:Temp:Feuchte:Taupunkt:
Aussen-T/F 1 26-06-2019 00:00:00 23.9 C 67 % 17.4 C
2 26-06-2019 00:05:00 23.8 C 66 % 17.07 C
3 26-06-2019 00:10:00 23.7 C 68 % 17.44 C
4 26-06-2019 00:15:00 23.6 C 69 % 17.58 C
5 26-06-2019 00:20:00 23.5 C 70 % 17.71 C
6 26-06-2019 00:25:00 23.4 C 70 % 17.62 C
7 26-06-2019 00:30:00 23.3 C 69 % 17.29 C
8 26-06-2019 00:35:00 23.3 C 70 % 17.52 C
9 26-06-2019 00:40:00 23.2 C 70 % 17.42 C
10 26-06-2019 00:45:00 23.1 C 71 % 17.55 C
11 26-06-2019 00:50:00 23.1 C 72 % 17.78 C
12 26-06-2019 00:55:00 23.1 C 72 % 17.78 C
13 26-06-2019 01:00:00 22.9 C 72 % 17.58 C
14 26-06-2019 01:05:00 22.9 C 73 % 17.8 C
15 26-06-2019 01:10:00 22.9 C 73 % 17.8 C
16 26-06-2019 01:15:00 22.8 C 72 % 17.49 C
17 26-06-2019 01:20:00 22.7 C 72 % 17.39 C
18 26-06-2019 01:25:00 22.5 C 73 % 17.42 C
19 26-06-2019 01:30:00 22.3 C 74 % 17.44 C
20 26-06-2019 01:35:00 22.1 C 75 % 17.46 C
21 26-06-2019 01:40:00 22 C 76 % 17.57 C
22 26-06-2019 01:45:00 21.9 C 76 % 17.48 C
23 26-06-2019 01:50:00 21.8 C 77 % 17.59 C
24 26-06-2019 01:55:00 21.8 C 77 % 17.59 C
25 26-06-2019 02:00:00 21.7 C 77 % 17.49 C
Sensor: Nr:Datum:Temp:Feuchte:Taupunkt:
Aussen-T/F 26 26-06-2019 02:05:00 21.6 C 77 % 17.39 C
27 26-06-2019 02:10:00 21.5 C 78 % 17.5 C
28 26-06-2019 02:15:00 21.3 C 78 % 17.31 C
29 26-06-2019 02:20:00 21.3 C 79 % 17.51 C
30 26-06-2019 02:25:00 21.2 C 79 % 17.41 C
31 26-06-2019 02:30:00 21.2 C 79 % 17.41 C
32 26-06-2019 02:35:00 21.1 C 79 % 17.32 C
33 26-06-2019 02:40:00 21 C 80 % 17.42 C
34 26-06-2019 02:45:00 20.9 C 80 % 17.32 C
35 26-06-2019 02:50:00 20.9 C 81 % 17.52 C
36 26-06-2019 02:55:00 20.8 C 81 % 17.42 C
37 26-06-2019 03:00:00 20.8 C 81 % 17.42 C
38 26-06-2019 03:05:00 20.7 C 81 % 17.32 C
39 26-06-2019 03:10:00 20.7 C 81 % 17.32 C
40 26-06-2019 03:15:00 20.7 C 82 % 17.52 C
41 26-06-2019 03:20:00 20.7 C 82 % 17.52 C
42 26-06-2019 03:25:00 20.7 C 82 % 17.52 C
43 26-06-2019 03:30:00 20.7 C 82 % 17.52 C
44 26-06-2019 03:35:00 20.6 C 82 % 17.42 C
45 26-06-2019 03:40:00 20.4 C 82 % 17.22 C
46 26-06-2019 03:45:00 20.3 C 82 % 17.13 C
47 26-06-2019 03:50:00 20.3 C 83 % 17.32 C
48 26-06-2019 03:55:00 20.3 C 83 % 17.32 C
49 26-06-2019 04:00:00 20.3 C 83 % 17.32 C
50 26-06-2019 04:05:00 20.2 C 83 % 17.22 C
Sensor: Nr:Datum:Temp:Feuchte:Taupunkt:
Aussen-T/F 51 26-06-2019 04:10:00 20.1 C 83 % 17.12 C
52 26-06-2019 04:15:00 19.9 C 83 % 16.93 C
53 26-06-2019 04:20:00 19.9 C 84 % 17.12 C
54 26-06-2019 04:25:00 19.8 C 85 % 17.21 C
55 26-06-2019 04:30:00 19.8 C 85 % 17.21 C
56 26-06-2019 04:35:00 19.7 C 85 % 17.11 C
57 26-06-2019 04:40:00 19.6 C 85 % 17.01 C
58 26-06-2019 04:45:00 19.6 C 85 % 17.01 C
59 26-06-2019 04:50:00 19.5 C 86 % 17.1 C
60 26-06-2019 04:55:00 19.5 C 86 % 17.1 C
61 26-06-2019 05:00:00 19.4 C 86 % 17 C
62 26-06-2019 05:05:00 19.4 C 86 % 17 C
63 26-06-2019 05:10:00 19.4 C 87 % 17.18 C
64 26-06-2019 05:15:00 19.5 C 86 % 17.1 C
65 26-06-2019 05:20:00 19.6 C 86 % 17.19 C
66 26-06-2019 05:25:00 19.6 C 86 % 17.19 C
67 26-06-2019 05:30:00 19.5 C 86 % 17.1 C
68 26-06-2019 05:35:00 19.5 C 87 % 17.28 C
69 26-06-2019 05:40:00 19.5 C 87 % 17.28 C
70 26-06-2019 05:45:00 19.5 C 87 % 17.28 C
71 26-06-2019 05:50:00 19.4 C 87 % 17.18 C
72 26-06-2019 05:55:00 19.4 C 87 % 17.18 C
73 26-06-2019 06:00:00 19.5 C 87 % 17.28 C
74 26-06-2019 06:05:00 19.4 C 87 % 17.18 C
75 26-06-2019 06:10:00 19.4 C 88 % 17.36 C
Sensor: Nr:Datum:Temp:Feuchte:Taupunkt:
Aussen-T/F 76 26-06-2019 06:15:00 19.4 C 88 % 17.36 C
77 26-06-2019 06:20:00 19.5 C 88 % 17.46 C
78 26-06-2019 06:25:00 19.5 C 88 % 17.46 C
79 26-06-2019 06:30:00 19.6 C 88 % 17.56 C
80 26-06-2019 06:35:00 19.6 C 88 % 17.56 C
81 26-06-2019 06:40:00 19.7 C 88 % 17.66 C
82 26-06-2019 06:45:00 19.7 C 88 % 17.66 C
83 26-06-2019 06:50:00 19.8 C 88 % 17.75 C
84 26-06-2019 06:55:00 19.8 C 88 % 17.75 C
85 26-06-2019 07:00:00 19.8 C 88 % 17.75 C
86 26-06-2019 07:05:00 19.9 C 88 % 17.85 C
87 26-06-2019 07:10:00 20 C 88 % 17.95 C
88 26-06-2019 07:15:00 20.1 C 88 % 18.05 C
89 26-06-2019 07:20:00 20.2 C 88 % 18.15 C
90 26-06-2019 07:25:00 20.2 C 88 % 18.15 C
91 26-06-2019 07:30:00 20.3 C 88 % 18.25 C
92 26-06-2019 07:35:00 20.4 C 88 % 18.34 C
93 26-06-2019 07:40:00 20.5 C 88 % 18.44 C
94 26-06-2019 07:45:00 20.6 C 89 % 18.72 C
95 26-06-2019 07:50:00 20.7 C 88 % 18.64 C
96 26-06-2019 07:55:00 20.8 C 89 % 18.92 C
97 26-06-2019 08:00:00 20.9 C 89 % 19.02 C
98 26-06-2019 08:05:00 21.1 C 88 % 19.03 C
99 26-06-2019 08:10:00 21.2 C 87 % 18.95 C
100 26-06-2019 08:15:00 21.4 C 88 % 19.33 C
Sensor: Nr:Datum:Temp:Feuchte:Taupunkt:
Aussen-T/F 101 26-06-2019 08:20:00 21.6 C 88 % 19.53 C
102 26-06-2019 08:25:00 21.7 C 88 % 19.62 C
103 26-06-2019 08:30:00 21.9 C 88 % 19.82 C
104 26-06-2019 08:35:00 22.1 C 88 % 20.02 C
105 26-06-2019 08:40:00 22.3 C 88 % 20.21 C
106 26-06-2019 08:45:00 22.6 C 87 % 20.32 C
107 26-06-2019 08:50:00 22.8 C 88 % 20.71 C
108 26-06-2019 08:55:00 23.1 C 87 % 20.82 C
109 26-06-2019 09:00:00 23.2 C 88 % 21.1 C
110 26-06-2019 09:05:00 23.4 C 88 % 21.3 C
111 26-06-2019 09:10:00 23.6 C 86 % 21.12 C
112 26-06-2019 09:15:00 23.9 C 86 % 21.41 C
113 26-06-2019 09:20:00 24.2 C 85 % 21.52 C
114 26-06-2019 09:25:00 24.4 C 84 % 21.52 C
115 26-06-2019 09:30:00 24.8 C 83 % 21.71 C
116 26-06-2019 09:35:00 25.1 C 81 % 21.61 C
117 26-06-2019 09:40:00 25.4 C 80 % 21.7 C
118 26-06-2019 09:45:00 25.7 C 79 % 21.78 C
119 26-06-2019 09:50:00 25.9 C 78 % 21.77 C
120 26-06-2019 09:55:00 26.1 C 78 % 21.96 C
121 26-06-2019 10:00:00 26.2 C 77 % 21.84 C
122 26-06-2019 10:05:00 26.3 C 76 % 21.73 C
123 26-06-2019 10:10:00 26.5 C 76 % 21.92 C
124 26-06-2019 10:15:00 26.7 C 75 % 21.9 C
125 26-06-2019 10:20:00 26.8 C 76 % 22.21 C
Sensor: Nr:Datum:Temp:Feuchte:Taupunkt:
Aussen-T/F 126 26-06-2019 10:25:00 27.1 C 74 % 22.06 C
127 26-06-2019 10:30:00 27.3 C 75 % 22.47 C
128 26-06-2019 10:35:00 27.6 C 74 % 22.54 C
129 26-06-2019 10:40:00 27.9 C 72 % 22.38 C
130 26-06-2019 10:45:00 28.1 C 72 % 22.57 C
131 26-06-2019 10:50:00 28.2 C 71 % 22.44 C
132 26-06-2019 10:55:00 28.3 C 71 % 22.53 C
133 26-06-2019 11:00:00 28.4 C 70 % 22.39 C
134 26-06-2019 11:05:00 28.5 C 70 % 22.49 C
135 26-06-2019 11:10:00 28.6 C 69 % 22.35 C
136 26-06-2019 11:15:00 28.7 C 69 % 22.44 C
137 26-06-2019 11:20:00 28.8 C 68 % 22.3 C
138 26-06-2019 11:25:00 28.9 C 69 % 22.63 C
139 26-06-2019 11:30:00 28.9 C 68 % 22.39 C
140 26-06-2019 11:35:00 29.1 C 67 % 22.34 C
141 26-06-2019 11:40:00 29.2 C 67 % 22.44 C
142 26-06-2019 11:45:00 29.3 C 67 % 22.53 C
143 26-06-2019 11:50:00 29.4 C 67 % 22.63 C
144 26-06-2019 11:55:00 29.6 C 67 % 22.82 C
145 26-06-2019 12:00:00 29.7 C 66 % 22.66 C
146 26-06-2019 12:05:00 29.7 C 65 % 22.41 C
147 26-06-2019 12:10:00 29.8 C 66 % 22.76 C
148 26-06-2019 12:15:00 30 C 65 % 22.69 C
149 26-06-2019 12:20:00 30.1 C 64 % 22.53 C
150 26-06-2019 12:25:00 30.2 C 64 % 22.63 C
Sensor: Nr:Datum:Temp:Feuchte:Taupunkt:
Aussen-T/F 151 26-06-2019 12:30:00 30.3 C 62 % 22.2 C
152 26-06-2019 12:35:00 30.4 C 63 % 22.56 C
153 26-06-2019 12:40:00 30.4 C 61 % 22.03 C
154 26-06-2019 12:45:00 30.6 C 61 % 22.21 C
155 26-06-2019 12:50:00 30.8 C 59 % 21.85 C
156 26-06-2019 12:55:00 30.9 C 58 % 21.67 C
157 26-06-2019 13:00:00 31.1 C 57 % 21.57 C
158 26-06-2019 13:05:00 31.2 C 57 % 21.66 C
159 26-06-2019 13:10:00 31.3 C 56 % 21.47 C
160 26-06-2019 13:15:00 31.3 C 55 % 21.17 C
161 26-06-2019 13:20:00 31.4 C 54 % 20.97 C
162 26-06-2019 13:25:00 31.6 C 52 % 20.54 C
163 26-06-2019 13:30:00 31.7 C 48 % 19.34 C
164 26-06-2019 13:35:00 31.8 C 52 % 20.72 C
165 26-06-2019 13:40:00 31.9 C 53 % 21.12 C
166 26-06-2019 13:45:00 31.9 C 51 % 20.5 C
167 26-06-2019 13:50:00 32.2 C 51 % 20.77 C
168 26-06-2019 13:55:00 32.2 C 51 % 20.77 C
169 26-06-2019 14:00:00 32.3 C 51 % 20.86 C
170 26-06-2019 14:05:00 32.3 C 51 % 20.86 C
171 26-06-2019 14:10:00 32.3 C 51 % 20.86 C
172 26-06-2019 14:15:00 32.3 C 52 % 21.18 C
173 26-06-2019 14:20:00 32.4 C 51 % 20.96 C
174 26-06-2019 14:25:00 32.6 C 51 % 21.14 C
175 26-06-2019 14:30:00 32.7 C 49 % 20.58 C
Sensor: Nr:Datum:Temp:Feuchte:Taupunkt:
Aussen-T/F 176 26-06-2019 14:35:00 32.7 C 50 % 20.91 C
177 26-06-2019 14:40:00 32.9 C 50 % 21.09 C
178 26-06-2019 14:45:00 32.9 C 49 % 20.76 C
179 26-06-2019 14:50:00 33.1 C 50 % 21.27 C
180 26-06-2019 14:55:00 33.2 C 51 % 21.69 C
181 26-06-2019 15:00:00 33.4 C 52 % 22.19 C
182 26-06-2019 15:05:00 33.5 C 50 % 21.64 C
183 26-06-2019 15:10:00 33.4 C 49 % 21.22 C
184 26-06-2019 15:15:00 33.4 C 50 % 21.55 C
185 26-06-2019 15:20:00 33.6 C 49 % 21.4 C
186 26-06-2019 15:25:00 33.7 C 51 % 22.15 C
187 26-06-2019 15:30:00 33.9 C 51 % 22.33 C
188 26-06-2019 15:35:00 34.1 C 51 % 22.51 C
189 26-06-2019 15:40:00 34.3 C 49 % 22.04 C
190 26-06-2019 15:45:00 34.3 C 48 % 21.7 C
191 26-06-2019 15:50:00 34.5 C 48 % 21.88 C
192 26-06-2019 15:55:00 34.7 C 47 % 21.72 C
193 26-06-2019 16:00:00 34.7 C 49 % 22.4 C
194 26-06-2019 16:05:00 34.8 C 47 % 21.81 C
195 26-06-2019 16:10:00 34.8 C 45 % 21.1 C
196 26-06-2019 16:15:00 34.8 C 47 % 21.81 C
197 26-06-2019 16:20:00 34.9 C 46 % 21.55 C
198 26-06-2019 16:25:00 34.9 C 44 % 20.82 C
199 26-06-2019 16:30:00 34.8 C 45 % 21.1 C
200 26-06-2019 16:35:00 34.7 C 45 % 21.01 C
Sensor: Nr:Datum:Temp:Feuchte:Taupunkt:
Aussen-T/F 201 26-06-2019 16:40:00 34.6 C 46 % 21.28 C
202 26-06-2019 16:45:00 34.7 C 46 % 21.37 C
203 26-06-2019 16:50:00 34.7 C 45 % 21.01 C
204 26-06-2019 16:55:00 34.8 C 45 % 21.1 C
205 26-06-2019 17:00:00 34.9 C 44 % 20.82 C
206 26-06-2019 17:05:00 34.9 C 45 % 21.19 C
207 26-06-2019 17:10:00 35 C 45 % 21.28 C
208 26-06-2019 17:15:00 34.8 C 45 % 21.1 C
209 26-06-2019 17:20:00 34.8 C 44 % 20.73 C
210 26-06-2019 17:25:00 34.7 C 44 % 20.64 C
211 26-06-2019 17:30:00 34.7 C 44 % 20.64 C
212 26-06-2019 17:35:00 34.7 C 44 % 20.64 C
213 26-06-2019 17:40:00 34.8 C 43 % 20.36 C
214 26-06-2019 17:45:00 34.6 C 44 % 20.55 C
215 26-06-2019 17:50:00 34.6 C 44 % 20.55 C
216 26-06-2019 17:55:00 34.7 C 42 % 19.89 C
217 26-06-2019 18:00:00 34.6 C 42 % 19.8 C
218 26-06-2019 18:05:00 34.6 C 42 % 19.8 C
219 26-06-2019 18:10:00 34.7 C 41 % 19.5 C
220 26-06-2019 18:15:00 34.7 C 41 % 19.5 C
221 26-06-2019 18:20:00 34.6 C 42 % 19.8 C
222 26-06-2019 18:25:00 34.4 C 41 % 19.24 C
223 26-06-2019 18:30:00 34.3 C 42 % 19.53 C
224 26-06-2019 18:35:00 34.2 C 41 % 19.06 C
225 26-06-2019 18:40:00 34.1 C 42 % 19.35 C
Sensor: Nr:Datum:Temp:Feuchte:Taupunkt:
Aussen-T/F 226 26-06-2019 18:45:00 34.2 C 42 % 19.44 C
227 26-06-2019 18:50:00 34 C 43 % 19.64 C
228 26-06-2019 18:55:00 34 C 43 % 19.64 C
229 26-06-2019 19:00:00 33.9 C 44 % 19.92 C
230 26-06-2019 19:05:00 34.1 C 43 % 19.73 C
231 26-06-2019 19:10:00 34 C 43 % 19.64 C
232 26-06-2019 19:15:00 33.9 C 43 % 19.55 C
233 26-06-2019 19:20:00 33.9 C 43 % 19.55 C
234 26-06-2019 19:25:00 33.6 C 43 % 19.28 C
235 26-06-2019 19:30:00 33.4 C 44 % 19.47 C
236 26-06-2019 19:35:00 33.2 C 44 % 19.29 C
237 26-06-2019 19:40:00 32.9 C 44 % 19.02 C
238 26-06-2019 19:45:00 32.7 C 44 % 18.84 C
239 26-06-2019 19:50:00 32.5 C 44 % 18.66 C
240 26-06-2019 19:55:00 32.3 C 44 % 18.48 C
241 26-06-2019 20:00:00 32.2 C 45 % 18.75 C
242 26-06-2019 20:05:00 32.1 C 46 % 19.02 C
243 26-06-2019 20:10:00 31.9 C 46 % 18.83 C
244 26-06-2019 20:15:00 31.8 C 47 % 19.09 C
245 26-06-2019 20:20:00 31.6 C 49 % 19.58 C
246 26-06-2019 20:25:00 30.9 C 52 % 19.89 C
247 26-06-2019 20:30:00 30.3 C 52 % 19.34 C
248 26-06-2019 20:35:00 30.1 C 52 % 19.16 C
249 26-06-2019 20:40:00 30.1 C 54 % 19.76 C
250 26-06-2019 20:45:00 30.1 C 53 % 19.46 C
Sensor: Nr:Datum:Temp:Feuchte:Taupunkt:
Aussen-T/F 251 26-06-2019 20:50:00 30.1 C 54 % 19.76 C
252 26-06-2019 20:55:00 30.1 C 53 % 19.46 C
253 26-06-2019 21:00:00 29.9 C 53 % 19.28 C
254 26-06-2019 21:05:00 29.8 C 53 % 19.19 C
255 26-06-2019 21:10:00 29.7 C 54 % 19.39 C
256 26-06-2019 21:15:00 29.4 C 54 % 19.12 C
257 26-06-2019 21:20:00 29.2 C 56 % 19.52 C
258 26-06-2019 21:25:00 28.9 C 57 % 19.52 C
259 26-06-2019 21:30:00 28.7 C 56 % 19.05 C
260 26-06-2019 21:35:00 28.4 C 57 % 19.06 C
261 26-06-2019 21:40:00 28.3 C 58 % 19.24 C
262 26-06-2019 21:45:00 28 C 60 % 19.51 C
263 26-06-2019 21:50:00 27.7 C 59 % 18.96 C
264 26-06-2019 21:55:00 27.6 C 61 % 19.4 C
265 26-06-2019 22:00:00 27.4 C 61 % 19.21 C
266 26-06-2019 22:05:00 27.2 C 62 % 19.28 C
267 26-06-2019 22:10:00 26.9 C 63 % 19.26 C
268 26-06-2019 22:15:00 26.7 C 64 % 19.32 C
269 26-06-2019 22:20:00 26.5 C 65 % 19.38 C
270 26-06-2019 22:25:00 26.3 C 65 % 19.19 C
271 26-06-2019 22:30:00 26.2 C 66 % 19.34 C
272 26-06-2019 22:35:00 26.1 C 67 % 19.49 C
273 26-06-2019 22:40:00 25.9 C 67 % 19.3 C
274 26-06-2019 22:45:00 25.8 C 67 % 19.2 C
275 26-06-2019 22:50:00 25.9 C 68 % 19.54 C
Sensor: Nr:Datum:Temp:Feuchte:Taupunkt:
Aussen-T/F 276 26-06-2019 22:55:00 25.9 C 68 % 19.54 C
277 26-06-2019 23:00:00 25.8 C 68 % 19.44 C
278 26-06-2019 23:05:00 25.7 C 69 % 19.58 C
279 26-06-2019 23:10:00 25.8 C 69 % 19.68 C
280 26-06-2019 23:15:00 26 C 69 % 19.87 C
281 26-06-2019 23:20:00 26.2 C 68 % 19.82 C
282 26-06-2019 23:25:00 26.3 C 69 % 20.16 C
283 26-06-2019 23:30:00 26.2 C 69 % 20.06 C
284 26-06-2019 23:35:00 26.1 C 70 % 20.2 C
285 26-06-2019 23:40:00 26 C 70 % 20.1 C
286 26-06-2019 23:45:00 26.1 C 70 % 20.2 C
287 26-06-2019 23:50:00 26.1 C 70 % 20.2 C
288 26-06-2019 23:55:00 26.1 C 71 % 20.43 C

Legende:
   Min
   Max


Maximal/Minimal-Werte vom 26.06.2019 - 26.06.2019

Sensor Min Max Avg
Temp
(Aussen-T/F)
19.4 °C
26-06-2019  05:00:00
35 °C
26-06-2019  17:10:00
26.97 °C
Feuchte
(Aussen-T/F)
41 %
26-06-2019  18:10:00
89 %
26-06-2019  07:45:00
66.55 %
Taupunkt
(Aussen-T/F)
16.93 C
26-06-2019  04:15:00
22.82 C
26-06-2019  11:55:00
19.55 C

Die Daten stammen von einer Davis Vantage Pro 2 Wetter-Station und werden unter Linux mit der Software wview2wettercgi und aufbereitet. Alle Angaben erfolgen ohne Gewähr für ihre Vollständigkeit oder Richtigkeit.
Kontakt: Rainer Krienke krienke@uni-koblenz.de . Meine Webseiten an der Uni Koblenz oder privat.
Version: $Revision: 0.78 $